Погода в Агиа-Марине

Греция     35°31′11″N   23°55′47″E
темп.,
°C
ветер,
м/с
пор.,
м/с
влажн.,
%
обл.,
%
осадки,
мм/ч
давл.,
гПа
погр.,
м
25 января, пн
пн2523:00+12ю3370100 0.0 1015119
02:00+12ю3473100 0.0 1013167
05:00+12юз477962 0.1 1012547
08:00+12юз587955 0.2 1012548
11:00+16юз711668 0.1 10141281
14:00+17зюз610627 0.2 10131271
17:00+14зюз576761 0.0 1014560
20:00+12юз566780 0.0 1015311
26 января, вт
вт2623:00+12юз4565100 0.0 1016277
02:00+11ююз4572100 0.0 1015269
05:00+11ююз3473100 0.0 1014176
08:00+11ю347497 0.0 1014132
11:00+15ю135999 0.0 1013324
14:00+16ююз1460100 0.0 1010718
17:00+15ю3468100 0.0 1007232
20:00+13юз3774100 0.2 1004370
27 января, ср
ср2723:00+13зюз9138698 5.1 10031040
02:00+11зюз8138089 7.4 10031302
05:00+9зюз9147674 0.5 10041548
08:00+8з10147683 1.1 10071564
11:00+8з11166782 1.4 10082070
14:00+8з13196484 2.8 10072382
17:00+8з131970100 2.5 10082289
20:00+7з121872100 5.4 10101927
28 января, чт
чт2823:00+7з111675100 3.3 10101756
02:00+6з111578100 6.3 10111572
05:00+6з101475100 3.3 10111563
08:00+6зсз81171100 6.1 10121325
11:00+8зсз8115962 1.1 10142072
14:00+9зсз8114732 1.1 10142094
17:00+8зсз8126012 0.1 10151989
20:00+7з585213 0.1 1016800
29 января, пт
пт2923:00+8з7127612 0.1 10171063
02:00+9з9137554 0.6 10171388
05:00+8зюз697588 0.1 1016703
08:00+9юз567993 0.1 1016546
11:00+12юз246496 0.0 1016853
14:00+13с226598 0.1 1016746
17:00+12всв1272100 0.1 1016373
20:00+10ю227570 0.1 101890